This is the latest recevied weather packets stored in our database for station/object AG7BI. If no packets are shown the sender has not sent any weather packets the latest 10 day(s).
| Time | Temp. | Humidity | Pressure | Rain* | Wind** | Luminosity | Snow |
|---|---|---|---|---|---|---|---|
| 1777681252 | 16.11° C | 65% | 1015.1 hPa | 0 mm | - | - | - |
| 1777680952 | 16.11° C | 64% | 1015.3 hPa | 0 mm | - | - | - |
| 1777680652 | 16.11° C | 67% | 1015.3 hPa | 0 mm | - | - | - |
| 1777680352 | 16.11° C | 64% | 1015.1 hPa | 0 mm | - | - | - |
| 1777680052 | 16.11° C | 63% | 1015.2 hPa | 0 mm | - | - | - |
| 1777679752 | 16.11° C | 62% | 1015.1 hPa | 0 mm | - | - | - |
| 1777679452 | 16.67° C | 62% | 1014.9 hPa | 0 mm | - | - | - |
| 1777679152 | 16.11° C | 61% | 1015.1 hPa | 0 mm | - | - | - |
| 1777678852 | 16.11° C | 61% | 1014.9 hPa | 0 mm | - | - | - |
| 1777678552 | 16.11° C | 61% | 1015.3 hPa | 0 mm | - | - | - |
| 1777678252 | 16.11° C | 61% | 1015.1 hPa | 0 mm | - | - | - |
| 1777677952 | 16.11° C | 61% | 1015.1 hPa | 0 mm | - | - | - |
| 1777677652 | 16.11° C | 60% | 1015.2 hPa | 0 mm | - | - | - |
| 1777677352 | 16.11° C | 63% | 1015.1 hPa | 0 mm | - | - | - |
| 1777677052 | 16.11° C | 61% | 1015.1 hPa | 0 mm | - | - | - |
| 1777676752 | 16.11° C | 62% | 1015.1 hPa | 0 mm | - | - | - |
| 1777676452 | 16.11° C | 61% | 1015.5 hPa | 0 mm | - | - | - |
| 1777676152 | 16.11° C | 61% | 1015.4 hPa | 0 mm | - | - | - |
| 1777675852 | 16.11° C | 63% | 1015.6 hPa | 0 mm | - | - | - |
| 1777675552 | 16.11° C | 63% | 1015.4 hPa | 0 mm | - | - | - |
| 1777675252 | 16.11° C | 64% | 1015.8 hPa | 0 mm | - | - | - |
| 1777674952 | 16.11° C | 63% | 1015.6 hPa | 0 mm | - | - | - |
| 1777674653 | 15.56° C | 65% | 1016 hPa | 0 mm | - | - | - |
| 1777674374 | 15.56° C | 64% | 1015.8 hPa | 0 mm | - | - | - |
| 1777674053 | 16.11° C | 66% | 1015.8 hPa | 0 mm | - | - | - |
* Rain latest hour (hover to see other rain measurements)
** Current wind speed in m/s (hover to see current wind gust speed)